Time,TemperatureF,DewpointF,PressureIn,WindDirection,WindDirectionDegrees,WindSpeedMPH,WindSpeedGustMPH,Humidity,HourlyPrecipIn,Conditions,Clouds,dailyrainin,SoftwareType,DateUTC
2013-07-14 07:01:00,74.0,51.0,29.67,North,0,0.0,1.0,45,0.00,,,0.00,,2013-07-14 14:01:00,
2013-07-14 09:53:00,76.0,58.0,29.69,North,0,0.0,1.0,54,0.00,,,0.00,,2013-07-14 16:53:00,
2013-07-14 10:02:00,76.0,56.0,29.69,North,0,0.0,1.0,50,0.00,,,0.00,,2013-07-14 17:02:00,
2013-07-14 10:11:00,76.0,56.0,29.69,North,0,0.0,1.0,50,0.00,,,0.00,,2013-07-14 17:11:00,
2013-07-14 10:22:00,75.0,58.0,29.69,North,0,0.0,5.0,55,0.00,,,0.00,,2013-07-14 17:22:00,
2013-07-14 10:32:00,75.0,58.0,29.69,North,0,0.0,5.0,55,0.00,,,0.00,,2013-07-14 17:32:00,
2013-07-14 10:43:00,77.0,60.0,29.68,North,0,0.0,2.0,55,0.00,,,0.00,,2013-07-14 17:43:00,
2013-07-14 10:53:00,77.0,60.0,29.68,North,0,0.0,2.0,55,0.00,,,0.00,,2013-07-14 17:53:00,
2013-07-14 11:01:00,74.0,59.0,29.69,North,0,0.0,4.0,60,0.00,,,0.00,,2013-07-14 18:01:00,
2013-07-14 11:11:00,74.0,59.0,29.69,North,0,0.0,4.0,60,0.00,,,0.00,,2013-07-14 18:11:00,
2013-07-14 11:21:00,76.0,60.0,29.69,SSE,161,2.0,5.0,57,0.00,,,0.00,,2013-07-14 18:21:00,
2013-07-14 11:32:00,76.0,60.0,29.69,SSE,161,2.0,5.0,57,0.00,,,0.00,,2013-07-14 18:32:00,
2013-07-14 11:42:00,77.0,60.0,29.69,North,0,0.0,5.0,56,0.00,,,0.00,,2013-07-14 18:42:00,
2013-07-14 11:52:00,77.0,60.0,29.69,North,0,0.0,5.0,56,0.00,,,0.00,,2013-07-14 18:52:00,
2013-07-14 12:01:00,80.0,61.0,29.69,North,0,0.0,4.0,53,0.00,,,0.00,,2013-07-14 19:01:00,
2013-07-14 12:11:00,80.0,61.0,29.69,North,0,0.0,4.0,53,0.00,,,0.00,,2013-07-14 19:11:00,
2013-07-14 12:21:00,79.0,61.0,29.68,North,0,0.0,0.0,54,0.00,,,0.00,,2013-07-14 19:21:00,
2013-07-14 12:32:00,79.0,61.0,29.68,North,0,0.0,0.0,54,0.00,,,0.00,,2013-07-14 19:32:00,
2013-07-14 12:43:00,79.0,61.0,29.68,North,0,0.0,0.0,54,0.00,,,0.00,,2013-07-14 19:43:00,
2013-07-14 12:53:00,79.0,61.0,29.68,North,0,0.0,0.0,54,0.00,,,0.00,,2013-07-14 19:53:00,
2013-07-14 13:01:00,77.0,60.0,29.68,SSE,156,4.0,8.0,56,0.00,,,0.00,,2013-07-14 20:01:00,
2013-07-14 13:11:00,77.0,60.0,29.68,SSE,156,4.0,8.0,56,0.00,,,0.00,,2013-07-14 20:11:00,
2013-07-14 13:22:00,77.0,60.0,29.67,SSE,153,4.0,8.0,55,0.00,,,0.00,,2013-07-14 20:22:00,
2013-07-14 13:32:00,77.0,60.0,29.67,SSE,153,4.0,8.0,55,0.00,,,0.00,,2013-07-14 20:32:00,
2013-07-14 13:43:00,79.0,61.0,29.66,North,0,0.0,1.0,54,0.00,,,0.00,,2013-07-14 20:43:00,
2013-07-14 13:53:00,79.0,61.0,29.66,North,0,0.0,1.0,54,0.00,,,0.00,,2013-07-14 20:53:00,
2013-07-14 14:01:00,77.0,59.0,29.66,SSE,164,1.0,5.0,54,0.00,,,0.00,,2013-07-14 21:01:00,
2013-07-14 14:11:00,77.0,59.0,29.66,SSE,164,1.0,5.0,54,0.00,,,0.00,,2013-07-14 21:11:00,
2013-07-14 14:22:00,75.0,59.0,29.66,SSE,158,4.0,7.0,58,0.00,,,0.00,,2013-07-14 21:22:00,
2013-07-14 14:32:00,75.0,59.0,29.66,SSE,158,4.0,7.0,58,0.00,,,0.00,,2013-07-14 21:32:00,
2013-07-14 14:42:00,75.0,59.0,29.66,North,0,0.0,3.0,57,0.00,,,0.00,,2013-07-14 21:42:00,
2013-07-14 14:52:00,75.0,59.0,29.66,North,0,0.0,3.0,57,0.00,,,0.00,,2013-07-14 21:52:00,
2013-07-14 15:01:00,78.0,58.0,29.65,NW,306,5.0,9.0,50,0.00,,,0.00,,2013-07-14 22:01:00,
2013-07-14 15:11:00,78.0,58.0,29.65,NW,306,5.0,9.0,50,0.00,,,0.00,,2013-07-14 22:11:00,
2013-07-14 15:21:00,80.0,59.0,29.65,West,280,1.0,7.0,48,0.00,,,0.00,,2013-07-14 22:21:00,
2013-07-14 15:32:00,80.0,59.0,29.65,West,280,1.0,7.0,48,0.00,,,0.00,,2013-07-14 22:32:00,
2013-07-14 15:42:00,81.0,59.0,29.64,North,0,0.0,6.0,47,0.00,,,0.00,,2013-07-14 22:42:00,
2013-07-14 15:53:00,81.0,59.0,29.64,North,0,0.0,6.0,47,0.00,,,0.00,,2013-07-14 22:53:00,
2013-07-14 16:01:00,79.0,54.0,29.63,WSW,244,2.0,10.0,42,0.00,,,0.00,,2013-07-14 23:01:00,
2013-07-14 16:11:00,79.0,54.0,29.63,WSW,244,2.0,10.0,42,0.00,,,0.00,,2013-07-14 23:11:00,
2013-07-14 16:22:00,81.0,55.0,29.62,WSW,257,6.0,9.0,41,0.00,,,0.00,,2013-07-14 23:22:00,
2013-07-14 16:32:00,81.0,55.0,29.62,WSW,257,6.0,9.0,41,0.00,,,0.00,,2013-07-14 23:32:00,
2013-07-14 16:42:00,81.0,54.0,29.62,SW,233,5.0,11.0,40,0.00,,,0.00,,2013-07-14 23:42:00,
2013-07-14 16:53:00,81.0,54.0,29.62,SW,233,5.0,11.0,40,0.00,,,0.00,,2013-07-14 23:53:00,
2013-07-14 17:02:00,82.0,54.0,29.61,West,259,8.0,14.0,38,0.00,,,0.00,,2013-07-15 00:02:00,
2013-07-14 17:11:00,82.0,54.0,29.61,West,259,8.0,14.0,38,0.00,,,0.00,,2013-07-15 00:11:00,
2013-07-14 17:21:00,83.0,52.0,29.60,West,260,7.0,19.0,34,0.00,,,0.00,,2013-07-15 00:21:00,
2013-07-14 17:32:00,83.0,52.0,29.60,West,260,7.0,19.0,34,0.00,,,0.00,,2013-07-15 00:32:00,
2013-07-14 17:43:00,82.0,52.0,29.59,WSW,243,6.0,14.0,36,0.00,,,0.00,,2013-07-15 00:43:00,
2013-07-14 17:53:00,82.0,52.0,29.59,WSW,243,6.0,14.0,36,0.00,,,0.00,,2013-07-15 00:53:00,
2013-07-14 18:01:00,81.0,53.0,29.59,WSW,257,12.0,18.0,38,0.00,,,0.00,,2013-07-15 01:01:00,
2013-07-14 18:11:00,81.0,53.0,29.59,WSW,257,12.0,18.0,38,0.00,,,0.00,,2013-07-15 01:11:00,
2013-07-14 18:22:00,81.0,53.0,29.58,West,281,10.0,16.0,38,0.00,,,0.00,,2013-07-15 01:22:00,
2013-07-14 18:32:00,81.0,53.0,29.58,West,281,10.0,16.0,38,0.00,,,0.00,,2013-07-15 01:32:00,
2013-07-14 18:43:00,81.0,52.0,29.57,West,269,7.0,15.0,36,0.00,,,0.00,,2013-07-15 01:43:00,
2013-07-14 18:53:00,81.0,52.0,29.57,West,269,7.0,15.0,36,0.00,,,0.00,,2013-07-15 01:53:00,
2013-07-14 19:02:00,80.0,51.0,29.59,West,268,6.0,16.0,37,0.00,,,0.00,,2013-07-15 02:02:00,
2013-07-14 19:11:00,80.0,51.0,29.59,West,268,6.0,16.0,37,0.00,,,0.00,,2013-07-15 02:11:00,
2013-07-14 19:22:00,80.0,51.0,29.59,West,268,6.0,16.0,37,0.00,,,0.00,,2013-07-15 02:22:00,
2013-07-14 19:32:00,80.0,51.0,29.59,West,268,6.0,16.0,37,0.00,,,0.00,,2013-07-15 02:32:00,
2013-07-14 19:42:00,79.0,51.0,29.58,NW,308,6.0,14.0,38,0.00,,,0.00,,2013-07-15 02:42:00,
2013-07-14 19:53:00,79.0,51.0,29.58,NW,308,6.0,14.0,38,0.00,,,0.00,,2013-07-15 02:53:00,
2013-07-14 20:02:00,79.0,53.0,29.59,NW,324,4.0,10.0,41,0.00,,,0.00,,2013-07-15 03:02:00,
2013-07-14 20:11:00,79.0,53.0,29.59,NW,324,4.0,10.0,41,0.00,,,0.00,,2013-07-15 03:11:00,
2013-07-14 20:21:00,80.0,53.0,29.59,NNW,327,8.0,12.0,39,0.00,,,0.00,,2013-07-15 03:21:00,
2013-07-14 20:32:00,80.0,53.0,29.59,NNW,327,8.0,12.0,39,0.00,,,0.00,,2013-07-15 03:32:00,
2013-07-14 20:42:00,80.0,51.0,29.59,West,279,7.0,14.0,36,0.00,,,0.00,,2013-07-15 03:42:00,
2013-07-14 20:53:00,80.0,51.0,29.59,West,279,7.0,14.0,36,0.00,,,0.00,,2013-07-15 03:53:00,
2013-07-14 21:01:00,81.0,51.0,29.60,WSW,254,7.0,12.0,35,0.00,,,0.00,,2013-07-15 04:01:00,
2013-07-14 21:11:00,81.0,51.0,29.60,WSW,254,7.0,12.0,35,0.00,,,0.00,,2013-07-15 04:11:00,
2013-07-14 21:22:00,80.0,49.0,29.59,WSW,250,5.0,15.0,34,0.00,,,0.00,,2013-07-15 04:22:00,
2013-07-14 21:32:00,80.0,49.0,29.59,WSW,250,5.0,15.0,34,0.00,,,0.00,,2013-07-15 04:32:00,
2013-07-14 21:42:00,80.0,48.0,29.60,WNW,296,10.0,15.0,33,0.00,,,0.00,,2013-07-15 04:42:00,
2013-07-14 21:53:00,80.0,48.0,29.60,WNW,296,10.0,15.0,33,0.00,,,0.00,,2013-07-15 04:53:00,
2013-07-14 22:02:00,81.0,48.0,29.60,West,264,5.0,13.0,32,0.00,,,0.00,,2013-07-15 05:02:00,
2013-07-14 23:32:00,79.0,51.0,29.62,North,0,0.0,0.0,38,0.00,,,0.00,,2013-07-15 06:32:00,
2013-07-14 23:42:00,79.0,51.0,29.62,North,0,0.0,0.0,38,0.00,,,0.00,,2013-07-15 06:42:00,